Current Version              Previous Version:    01  02  03  04  05  06  07  08  09  10  11  12  13  14  15  16  17  18  19  20  21  22  23  24  25  26  27  28  29  30  
   31  32  33  34  35  36  37  38  39  40  41  42  43  44  45  46  47  48  49  50  51  52  53  54  55  56  57  58  59  60  

[Printable]
335
ASUS44 KFWD 260415
RWRTX
NORTH TEXAS HOURLY WEATHER ROUNDUP
NATIONAL WEATHER SERVICE FORT WORTH TX
1000 PM CST TUE NOV 25 2014

NOTE: "FAIR" INDICATES FEW OR NO CLOUDS BELOW 12,000 FEET WITH NO
SIGNIFICANT WEATHER AND/OR OBSTRUCTIONS TO VISIBILITY.

TXZ118-119-260500-
DALLAS/FORT WORTH METROPLEX

CITY           SKY/WX    TMP DP  RH WIND       PRES   REMARKS
DFW AIRPORT    PTCLDY    45  29  53 S8        30.14R
DALLAS LOVE    PTCLDY    47  33  58 CALM      30.15R
FTW MEACHAM    CLEAR     47  30  51 S5        30.14R
DAL-EXECUTIVE  PTCLDY    50  26  39 SW3       30.15R
FTW-ALLIANCE   MOCLDY    43  30  60 CALM      30.14R
FTW-SPINKS     CLEAR     38  31  76 S3        30.16S
ARLINGTON      CLEAR     39  30  70 S3        30.15R
GRAND PRAIRIE  CLEAR     47  31  53 S3        30.17R
ADDISON        PTCLDY    50  33  50 S5        30.16S
MESQUITE       MOCLDY    47  28  46 CALM      30.16R
LANCASTER      PTCLDY    41  28  59 CALM      30.17R
$$

TXZ091>094-102>105-117-120-121-131>134-260500-
NORTH CENTRAL TEXAS

CITY           SKY/WX    TMP DP  RH WIND       PRES   REMARKS
SHRMAN/DENISON CLOUDY    49  31  49 S7        30.14F
GAINESVILLE    CLOUDY    42  32  67 SE5       30.13F WCI  39
BOWIE          PTCLDY    40  31  69 SE5       30.09F WCI  37
BRIDGEPORT     PTCLDY    37  28  71 CALM      30.14F
DECATUR        CLEAR     49  28  42 S9        30.12F
DENTON         PTCLDY    43  30  60 CALM      30.14R
MCKINNEY       MOCLDY    44  30  57 CALM      30.15R
GREENVILLE     CLOUDY    43  34  70 CALM      30.16R
ROCKWALL       CLOUDY    49  30  48 S6        30.14S
TERRELL        CLOUDY    48  30  49 CALM      30.16S
WAXAHACHIE     CLEAR     44  30  57 SW3       30.17R
CLEBURNE       CLEAR     45  28  53 S6        30.17S
GRANBURY       PTCLDY    49  31  50 SW5       30.17R
$$

TXZ083>090-098>101-113>116-127>130-139>142-154-155-260500-
WESTERN NORTH TEXAS

CITY           SKY/WX    TMP DP  RH WIND       PRES   REMARKS
WICHITA FALLS  PTCLDY    45  31  58 S10       30.05F WCI  40
WF-KICKAPOO    FAIR      42  32  69 S9        30.07F WCI  36
VERNON         CLEAR     45  28  53 S10       30.02F WCI  39
ABILENE        CLEAR     45  24  43 S8        30.12F
ABILENE-DYESS  CLEAR     44  24  45 S7        30.11F WCI  40
BRECKENRIDGE   CLEAR     49  27  41 SW9       30.12R
GRAHAM         PTCLDY    45  31  57 S5        30.09F
MINERAL WELLS  PTCLDY    42  31  64 SE7       30.12S WCI  38
STEPHENVILLE   CLEAR     42  29  59 CALM      30.17F
COMANCHE       CLEAR     47  29  49 SW9       30.16S
BROWNWOOD      PTCLDY    39  32  75 SE3       30.16F
COLEMAN        CLEAR     48  28  44 SW9       30.15F
BRADY          CLEAR     41  25  52 SW3       30.17S
$$

TXZ143>147-156>162-174-175-260500-
CENTRAL TEXAS

CITY           SKY/WX    TMP DP  RH WIND       PRES   REMARKS
WACO           CLEAR     37  33  85 SW8       30.17F WCI  31
WACO-MCGREGOR  CLEAR     45  27  49 SW5       30.18F
HILLSBORO      CLEAR     47  28  47 CALM      30.16S
CORSICANA      CLEAR     47  28  47 SW6       30.18S
MEXIA          CLEAR     45  31  58 CALM      30.17S
HEARNE         CLEAR     43  34  71 CALM      30.21S
CAMERON        CLEAR     45  34  64 CALM      30.19F
TEMPLE         CLEAR     45  30  57 S7        30.17S
KILLEEN        CLEAR     43  31  63 W2        30.18S HAZE
KILLEEN-SKYLRK CLEAR     45  28  53 S5        30.15F
FORT HOOD      CLEAR     45  34  65 CALM      30.18S
GATESVILLE     CLEAR     43  32  65 CALM      30.20R
HAMILTON       CLEAR     43  29  57 SW6       30.18R WCI  39
LAMPASAS       CLEAR     42  32  66 W3        30.17S
$$

TXZ095>097-106>112-122>126-135>138-148>153-164>167-260500-
EAST TEXAS

CITY           SKY/WX    TMP DP  RH WIND       PRES   REMARKS
PARIS          CLOUDY    45  30  57 CALM      30.17R
SULPHUR SPRNGS CLOUDY    47  32  56 CALM      30.18R
MOUNT PLEASANT MOCLDY    42  32  70 SE3       30.17S
MINEOLA        CLOUDY    43  36  75 CALM      30.16S
TYLER          MOCLDY    45  36  70 S6        30.16F
LONGVIEW       CLEAR     43  34  70 S7        30.16F WCI  39
MARSHALL       CLEAR     39  37  90 CALM      30.19S
ATHENS         PTCLDY    39  34  81 CALM      30.17S
PALESTINE      PTCLDY    43  35  71 SE3       30.19F
JACKSONVILLE   FAIR      50  31  48 S3        30.19F
HENDERSON      CLEAR     38  35  88 CALM      30.19S
NACOGDOCHES    CLEAR     37  34  87 CALM      30.20F
LUFKIN         CLEAR     44  37  76 SE3       30.21F
$$

SUPPLEMENTAL OBSERVATIONS (CENTRAL)

CITY           SKY/WX    TMP DP  RH WIND       PRES   REMARKS
LAKE TEXOMA      N/A     46  34  61 CALM        N/A
CADDO GRASSLND   N/A     43  34  70 CALM        N/A
PAT MAYSE LAKE   N/A     46  34  61 SE2         N/A
GREENVILLE       N/A     46  28  49 W3          N/A
CEDAR HILL       N/A     45  28  53 S3          N/A
PALESTINE        N/A     46  30  53 CALM        N/A
LAKE LIMESTONE   N/A     43  32  65 E2          N/A
MCGREGOR         N/A     43  32  65 SW3         N/A
TEMPLE           N/A     48  30  49 SW2         N/A
$$

SUPPLEMENTAL OBSERVATIONS (WEST)

CITY           SKY/WX    TMP DP  RH WIND       PRES   REMARKS
MILLERS CREEK    N/A     43  28  56 SW9         N/A  WCI  37
POSSUM KINGDOM   N/A     48  27  43 S9          N/A
LBJ GRASSLAND    N/A     46  28  49 SE6         N/A
GRANBURY         N/A     48  30  49 SW5         N/A
COMANCHE         N/A     46  27  46 SW10        N/A
HAMBY            N/A     45  27  49 S9          N/A  WCI  40
$$

SUPPLEMENTAL OBSERVATIONS (EAST)

CITY           SKY/WX    TMP DP  RH WIND       PRES   REMARKS
CLARKSVILLE      N/A     46  28  49 E2          N/A
TEXARKANA        N/A     34  30  86 CALM        N/A
LINDEN           N/A     39  36  87 CALM        N/A
CADDO LAKE       N/A     37  34  87 CALM        N/A
GILMER           N/A     41  34  75 SW1         N/A
HENDERSON        N/A     39  34  81 SE2         N/A
LUFKIN           N/A     39  36  87 MISG        N/A
N SABINE NF      N/A     37  34  87 MISG        N/A
S SABINE NF      N/A     39  36  87 S2          N/A
$$

SUPPLEMENTAL OBSERVATIONS ARE A COLLECTION OF AUTOMATED INSTRUMENTS
THAT ARE MAINTAINED BY A VARIETY OF FEDERAL AND STATE AGENCIES.
CERTAIN ELEMENTS...SUCH AS HUMIDITY VALUES AND SUSTAINED WIND
SPEEDS...MAY BE APPROXIMATED.